EW2055 Weather Reports


time (UTC)temp
F
wind
direction
speed
knots
gust
knots
rain 1hr
in
rain 24hr
in
rain mn
in
humidity
%
barometer
mb
20260506051027 51 90 2.6 3.5 0.00 0.00 0.00 63 1012.5
20260506045041 53 0.0 0.9 0.00 0.00 0.00 60 1012.4
20260506044037 54 90 0.0 1.7 0.00 0.00 0.00 56 1012.2
20260506043114 55 90 0.9 1.7 0.00 0.00 0.00 54 1012.1
20260506042110 57 90 0.9 1.7 0.00 0.00 0.00 52 1012.0
20260506041107 58 0.0 0.0 0.00 0.00 0.00 49 1011.9
20260506035100 59 0.0 0.0 0.00 0.00 0.00 46 1011.4
20260506034056 60 0.0 0.0 0.00 0.00 0.00 45 1011.3
20260506033113 62 45 0.0 1.7 0.00 0.00 0.00 43 1011.3
20260506032050 63 45 0.0 1.7 0.00 0.00 0.00 41 1011.0
20260506031047 64 45 0.9 1.7 0.00 0.00 0.00 41 1010.9
20260506030043 65 22 0.9 2.6 0.00 0.00 0.00 39 1010.7
20260506025040 66 320 0.9 1.7 0.00 0.00 0.00 39 1010.6
20260506024037 67 90 0.0 1.7 0.00 0.00 0.00 37 1010.6
20260506023054 68 15 0.9 2.6 0.00 0.00 0.00 35 1010.4
20260506022031 69 307 0.9 2.6 0.00 0.00 0.00 34 1010.4
20260506021047 70 344 1.7 3.5 0.00 0.00 0.00 31 1010.2
20260506020044 70 341 1.7 6.1 0.00 0.00 0.00 31 1010.2
20260506015021 71 355 2.6 7.0 0.00 0.00 0.00 29 1010.2
20260506014018 72 225 2.6 3.5 0.00 0.00 0.00 28 1010.1
20260506013115 72 349 2.6 3.5 0.00 0.00 0.00 29 1010.1
20260506012111 72 349 2.6 5.2 0.00 0.00 0.00 29 1010.0
20260506011105 72 0 2.6 7.0 0.00 0.00 0.00 29 1010.0
20260506005058 74 347 3.5 7.8 0.00 0.00 0.00 28 1009.8
20260506004055 74 311 2.6 6.1 0.00 0.00 0.00 29 1009.7
20260506003052 74 8 2.6 4.3 0.00 0.00 0.00 27 1009.6
20260506002108 75 320 3.5 7.8 0.00 0.00 0.00 27 1009.4
20260506001045 75 330 4.3 7.0 0.00 0.00 0.00 26 1009.3
20260506000042 76 331 3.5 7.0 0.00 0.00 0.00 26 1009.3
20260505235039 76 350 3.5 6.1 0.00 0.00 0.00 26 1009.3
20260505234035 76 350 2.6 6.1 0.00 0.00 0.00 26 1009.2
20260505233031 77 338 2.6 3.5 0.00 0.00 0.00 26 1009.2
20260505232028 77 356 3.5 7.0 0.00 0.00 0.00 24 1009.3
20260505231025 77 356 2.6 7.0 0.00 0.00 0.00 23 1009.2
20260505230041 77 9 1.7 3.5 0.00 0.00 0.00 23 1009.2
20260505225018 78 354 3.5 5.2 0.00 0.00 0.00 22 1009.1
20260505224135 78 331 4.3 8.7 0.00 0.00 0.00 23 1009.1
20260505223111 78 329 4.3 7.0 0.00 0.00 0.00 23 1009.0
20260505222108 78 350 3.5 6.1 0.00 0.00 0.00 23 1009.1
20260505221125 79 307 2.6 5.2 0.00 0.00 0.00 23 1009.0
20260505215116 79 299 2.6 6.1 0.00 0.00 0.00 24 1009.1
20260505214053 79 7 3.5 6.1 0.00 0.00 0.00 25 1009.2
20260505213050 79 351 2.6 3.5 0.00 0.00 0.00 25 1009.1
20260505212047 80 25 3.5 6.1 0.00 0.00 0.00 26 1009.2
20260505211043 79 311 1.7 4.3 0.00 0.00 0.00 27 1009.1
20260505210040 78 15 2.6 5.2 0.00 0.00 0.00 27 1009.2
20260505205036 78 344 2.6 7.0 0.00 0.00 0.00 28 1009.1
20260505204033 79 328 3.5 6.1 0.00 0.00 0.00 27 1009.2
20260505203030 79 5 2.6 6.1 0.00 0.00 0.00 27 1009.2
20260505202026 79 10 2.6 4.3 0.00 0.00 0.00 29 1009.2
20260505201024 78 325 2.6 7.0 0.00 0.00 0.00 33 1009.2
20260505200019 77 0 2.6 4.3 0.00 0.00 0.00 34 1009.2
20260505195015 76 30 1.7 3.5 0.00 0.00 0.00 33 1009.1
20260505194112 76 5 0.9 3.5 0.00 0.00 0.00 35 1009.2
20260505193109 75 276 2.6 4.3 0.00 0.00 0.00 36 1009.1
20260505192106 74 297 3.5 7.0 0.00 0.00 0.00 39 1009.2
20260505191123 74 266 3.5 7.0 0.00 0.00 0.00 40 1009.2
20260505190059 74 250 2.6 5.2 0.00 0.00 0.00 43 1009.2
20260505185057 73 254 2.6 5.2 0.00 0.00 0.00 46 1009.4
20260505184053 73 275 1.7 5.2 0.00 0.00 0.00 47 1009.5
20260505183050 71 234 2.6 4.3 0.00 0.00 0.00 48 1009.6
20260505182046 70 234 2.6 3.5 0.00 0.00 0.00 46 1009.7
20260505181043 70 280 2.6 4.3 0.00 0.00 0.00 49 1009.9
20260505180040 69 273 2.6 3.5 0.00 0.00 0.00 52 1009.9
20260505175057 68 263 1.7 5.2 0.00 0.00 0.00 50 1009.9
20260505174053 68 281 2.6 4.3 0.00 0.00 0.00 53 1010.0
20260505173030 67 277 2.6 5.2 0.00 0.00 0.00 54 1010.0
20260505172027 66 257 1.7 3.5 0.00 0.00 0.00 55 1010.1
20260505171024 65 238 1.7 3.5 0.00 0.00 0.00 56 1010.0
20260505170020 64 218 2.6 4.3 0.00 0.00 0.00 55 1010.1
20260505165017 64 255 2.6 4.3 0.00 0.00 0.00 56 1010.2
20260505164114 63 270 2.6 4.3 0.00 0.00 0.00 55 1010.2
20260505163111 62 269 3.5 5.2 0.00 0.00 0.00 54 1010.2
20260505162108 62 252 1.7 3.5 0.00 0.00 0.00 55 1010.2
20260505161105 61 259 2.6 4.3 0.00 0.00 0.00 54 1010.2
20260505153052 59 225 0.0 1.7 0.00 0.00 0.00 62 1010.2
20260505152049 58 0.0 1.7 0.00 0.00 0.00 65 1010.1
20260505151045 57 225 0.0 1.7 0.00 0.00 0.00 68 1010.2
20260505125030 37 135 0.9 2.6 0.00 0.00 0.00 85 1009.3
20260505124027 37 135 1.7 2.6 0.00 0.00 0.00 85 1009.1
20260505123023 38 135 0.9 2.6 0.00 0.00 0.00 90 1009.2
20260505122019 38 0.0 0.9 0.00 0.00 0.00 90 1009.0
20260505121016 39 135 0.0 1.7 0.00 0.00 0.00 90 1009.0
20260505120113 38 135 0.0 1.7 0.00 0.00 0.00 89 1008.9
20260505115249 38 135 0.9 2.6 0.00 0.00 0.00 89 1008.7
20260505114106 38 135 0.9 1.7 0.00 0.00 0.00 88 1008.8
20260505113103 38 135 0.9 1.7 0.00 0.00 0.00 87 1008.8
20260505112059 39 135 0.9 1.7 0.00 0.00 0.00 87 1008.8
20260505111056 39 0.0 1.7 0.00 0.00 0.00 87 1008.6
20260505102039 40 135 0.0 1.7 0.00 0.00 0.00 86 1008.3
20260505101036 40 0.0 0.9 0.00 0.00 0.00 85 1008.4
20260505100032 40 0.0 0.9 0.00 0.00 0.00 84 1008.3
20260505095058 40 0.0 0.9 0.00 0.00 0.00 84 1008.4
20260505094055 41 135 0.0 1.7 0.00 0.00 0.00 83 1008.2
20260505093049 41 147 0.9 1.7 0.00 0.00 0.00 82 1008.4
20260505092046 41 90 0.9 1.7 0.00 0.00 0.00 81 1008.4
20260505091042 42 90 0.9 1.7 0.00 0.00 0.00 80 1008.4
20260505090039 42 0.0 0.9 0.00 0.00 0.00 81 1008.4
20260505085054 42 90 1.7 2.6 0.00 0.00 0.00 80 1008.2
20260505084051 43 90 1.7 3.5 0.00 0.00 0.00 78 1008.3
20260505083048 43 104 1.7 3.5 0.00 0.00 0.00 77 1008.4
20260505082024 43 113 0.0 1.7 0.00 0.00 0.00 77 1008.3
20260505081038 44 120 1.7 1.7 0.00 0.00 0.00 75 1008.3
20260505080115 45 109 0.9 2.6 0.00 0.00 0.00 74 1008.3
20260505075131 45 90 0.9 1.7 0.00 0.00 0.00 75 1008.3
20260505074128 45 90 0.9 2.6 0.00 0.00 0.00 74 1008.3
20260505073105 45 90 0.9 4.3 0.00 0.00 0.00 73 1008.2
20260505072101 45 90 0.9 1.7 0.00 0.00 0.00 73 1008.2
20260505071058 46 90 0.0 1.7 0.00 0.00 0.00 72 1008.1
20260505070134 46 90 0.0 1.7 0.00 0.00 0.00 72 1008.1
20260505065051 47 90 0.0 1.7 0.00 0.00 0.00 72 1008.0
20260505064047 47 90 0.0 1.7 0.00 0.00 0.00 71 1008.0
20260505063044 47 135 0.0 1.7 0.00 0.00 0.00 71 1008.0
20260505062040 48 135 0.0 1.7 0.00 0.00 0.00 71 1008.0
20260505061037 47 101 0.9 2.6 0.00 0.00 0.00 71 1007.9
20260505060054 48 140 0.9 3.5 0.00 0.00 0.00 71 1007.8